This is the latest recevied weather packets stored in our database for station/object AF9W-5. If no packets are shown the sender has not sent any weather packets the latest 10 day(s).
| Time | Temp. | Humidity | Pressure | Rain* | Wind** | Luminosity | Snow |
|---|---|---|---|---|---|---|---|
| 1777510587 | 25° C | 15% | 1012.5 hPa | 0 mm | - | 65 W/m² | - |
| 1777510283 | 25° C | 16% | 1013 hPa | 0 mm | - | 55 W/m² | - |
| 1777509980 | 25° C | 16% | 1012.8 hPa | 0 mm | - | 66 W/m² | - |
| 1777509676 | 25° C | 16% | 1012.4 hPa | 0 mm | - | 94 W/m² | - |
| 1777509373 | 25° C | 16% | 1012.6 hPa | 0 mm | - | 94 W/m² | - |
| 1777509070 | 25° C | 16% | 1012.4 hPa | 0 mm | - | 94 W/m² | - |
| 1777508767 | 25.56° C | 16% | 1012.4 hPa | 0 mm | - | 70 W/m² | - |
| 1777508464 | 25.56° C | 16% | 1012.6 hPa | 0 mm | - | 100 W/m² | - |
| 1777508161 | 25.56° C | 16% | 1012.5 hPa | 0 mm | - | 83 W/m² | - |
| 1777507857 | 25.56° C | 16% | 1012.4 hPa | 0 mm | - | 103 W/m² | - |
| 1777507555 | 25.56° C | 15% | 1012.5 hPa | 0 mm | - | 99 W/m² | - |
| 1777507251 | 25.56° C | 16% | 1013 hPa | 0 mm | - | 130 W/m² | - |
| 1777506949 | 25.56° C | 16% | 1012.9 hPa | 0 mm | - | 98 W/m² | - |
| 1777506646 | 25.56° C | 15% | 1013 hPa | 0 mm | - | 107 W/m² | - |
| 1777506343 | 25.56° C | 14% | 1013 hPa | 0 mm | - | 119 W/m² | - |
| 1777506038 | 25.56° C | 14% | 1013 hPa | 0 mm | - | 133 W/m² | - |
| 1777505734 | 26.11° C | 14% | 1012.9 hPa | 0 mm | - | 132 W/m² | - |
| 1777505432 | 26.11° C | 14% | 1012.9 hPa | 0 mm | - | 164 W/m² | - |
| 1777505128 | 27.22° C | 14% | 1012.8 hPa | 0 mm | - | 170 W/m² | - |
| 1777504825 | 26.67° C | 17% | 1012.8 hPa | 0 mm | - | 324 W/m² | - |
| 1777504522 | 26.67° C | 14% | 1012.8 hPa | 0 mm | - | 253 W/m² | - |
| 1777504218 | 25.56° C | 17% | 1013 hPa | 0 mm | - | 315 W/m² | - |
| 1777503914 | 25.56° C | 14% | 1012.6 hPa | 0 mm | - | 170 W/m² | - |
| 1777503610 | 26.11° C | 15% | 1012.9 hPa | 0 mm | - | 162 W/m² | - |
| 1777503307 | 26.11° C | 18% | 1013.1 hPa | 0 mm | - | 178 W/m² | - |
* Rain latest hour (hover to see other rain measurements)
** Current wind speed in m/s (hover to see current wind gust speed)